N4JAH-WX Weather Reports


time (UTC)temp
F
wind
direction
speed
knots
gust
knots
rain 1hr
in
rain 24hr
in
rain mn
in
humidity
%
barometer
mb
20210518194005 77 247 0.0 3.5 0.00 0.00 0.00 67 1023.8
20210518193505 77 266 0.0 3.5 0.00 0.00 0.00 68 1023.9
20210518193004 77 267 0.0 3.5 0.00 0.00 0.00 71 1024.2
20210518192504 77 254 0.0 3.5 0.00 0.00 0.00 69 1024.2
20210518192004 76 270 0.0 3.5 0.00 0.00 0.00 71 1024.3
20210518191504 76 238 0.0 3.5 0.00 0.00 0.00 70 1024.3
20210518191004 77 269 0.9 3.5 0.00 0.00 0.00 70 1024.3
20210518190504 77 267 0.0 6.1 0.00 0.00 0.00 70 1024.3
20210518190004 77 267 0.0 6.1 0.00 0.00 0.00 70 1024.3
20210518185503 77 259 0.0 6.1 0.00 0.00 0.00 70 1024.5
20210518185003 77 252 0.0 6.1 0.00 0.00 0.00 71 1024.6
20210518184503 77 250 0.9 6.1 0.00 0.00 0.00 69 1024.6
20210518184003 76 249 0.9 6.1 0.00 0.00 0.00 71 1024.7
20210518183503 76 251 0.0 6.1 0.00 0.00 0.00 72 1024.8
20210518183003 76 255 0.0 6.1 0.00 0.00 0.00 70 1024.8
20210518182503 76 269 0.0 6.1 0.00 0.00 0.00 71 1024.8
20210518182002 76 239 0.0 6.1 0.00 0.00 0.00 70 1024.9
20210518181502 76 254 0.0 6.1 0.00 0.00 0.00 71 1025.0
20210518181002 76 250 1.7 6.1 0.00 0.00 0.00 70 1025.1
20210518180502 76 266 0.0 5.2 0.00 0.00 0.00 72 1025.2
20210518180002 76 267 0.9 5.2 0.00 0.00 0.00 71 1025.2
20210518175502 76 251 0.0 5.2 0.00 0.00 0.00 69 1025.4
20210518175002 76 268 0.0 5.2 0.00 0.00 0.00 71 1025.4
20210518174501 76 268 2.6 5.2 0.00 0.00 0.00 70 1025.4
20210518174001 76 263 0.0 5.2 0.00 0.00 0.00 72 1025.4
20210518173501 76 260 0.0 5.2 0.00 0.00 0.00 73 1025.5
20210518173001 75 261 0.0 5.2 0.00 0.00 0.00 73 1025.6
20210518172501 75 261 0.0 5.2 0.00 0.00 0.00 72 1025.5
20210518172001 75 270 0.0 5.2 0.00 0.00 0.00 73 1025.6
20210518171501 75 241 0.0 5.2 0.00 0.00 0.00 75 1025.6
20210518171000 75 203 0.9 5.2 0.00 0.00 0.00 71 1025.6
20210518170500 75 192 0.0 3.5 0.00 0.00 0.00 72 1025.7
20210518170000 75 266 0.0 3.5 0.00 0.00 0.00 75 1025.6
20210518165500 74 267 0.0 3.5 0.00 0.00 0.00 77 1025.6
20210518165000 74 266 0.0 3.5 0.00 0.00 0.00 74 1025.7
20210518164500 74 257 1.7 3.5 0.00 0.00 0.00 74 1025.8
20210518163959 74 275 0.0 3.5 0.00 0.00 0.00 74 1025.8
20210518163459 74 270 0.0 3.5 0.00 0.00 0.00 76 1025.7
20210518162959 74 269 0.0 3.5 0.00 0.00 0.00 75 1025.8
20210518162459 73 269 0.0 3.5 0.00 0.00 0.00 75 1025.8
20210518161959 74 271 0.0 3.5 0.00 0.00 0.00 74 1025.9
20210518161459 74 274 0.0 3.5 0.00 0.00 0.00 75 1025.9
20210518160959 74 274 0.0 3.5 0.00 0.00 0.00 74 1025.9
20210518160458 74 275 0.0 1.7 0.00 0.00 0.00 71 1025.9
20210518155958 75 267 0.9 1.7 0.00 0.00 0.00 74 1025.8
20210518155458 75 267 0.0 1.7 0.00 0.00 0.00 74 1025.8
20210518154958 75 267 0.0 1.7 0.00 0.00 0.00 72 1025.7
20210518154458 74 267 0.0 1.7 0.00 0.00 0.00 76 1025.7
20210518153958 74 268 0.0 1.7 0.00 0.00 0.00 75 1025.7
20210518153458 73 268 0.0 1.7 0.00 0.00 0.00 75 1025.9
20210518152957 74 282 1.7 1.7 0.00 0.00 0.00 72 1025.8
20210518152457 73 229 0.0 1.7 0.00 0.00 0.00 75 1026.0
20210518151957 73 233 0.9 1.7 0.00 0.00 0.00 75 1026.1
20210518151457 73 260 0.0 1.7 0.00 0.00 0.00 75 1026.1
20210518150957 73 260 0.0 1.7 0.00 0.00 0.00 77 1026.1
20210518150457 72 261 0.0 0.0 0.00 0.00 0.00 77 1026.1
20210518145957 72 261 0.0 0.0 0.00 0.00 0.00 77 1026.1
20210518145456 71 261 0.0 0.0 0.00 0.00 0.00 76 1026.0
20210518144956 71 259 0.0 0.0 0.00 0.00 0.00 79 1026.0
20210518144456 71 258 0.0 0.0 0.00 0.00 0.00 77 1025.9
20210518143956 70 272 0.0 0.0 0.00 0.00 0.00 78 1025.9
20210518143456 70 273 0.9 0.0 0.00 0.00 0.00 79 1025.8
20210518142956 70 267 0.9 0.0 0.00 0.00 0.00 78 1025.9
20210518142456 70 259 0.0 0.0 0.00 0.00 0.00 81 1026.1
20210518141955 70 259 0.0 0.0 0.00 0.00 0.00 80 1026.1
20210518141455 70 259 0.0 0.0 0.00 0.00 0.00 79 1026.2
20210518140955 70 259 0.0 0.0 0.00 0.00 0.00 80 1026.2
20210518140455 69 259 0.0 0.9 0.00 0.00 0.00 81 1026.1
20210518135955 69 259 0.0 0.9 0.00 0.00 0.00 82 1026.1
20210518135455 68 259 0.0 0.9 0.00 0.00 0.00 82 1026.1
20210518134955 68 259 0.0 0.9 0.00 0.00 0.00 82 1026.1
20210518134454 68 259 0.0 0.9 0.00 0.00 0.00 81 1026.2
20210518133954 68 259 0.0 0.9 0.00 0.00 0.00 83 1026.2
20210518133454 68 259 0.0 0.9 0.00 0.00 0.00 83 1026.1
20210518132954 68 259 0.0 0.9 0.00 0.00 0.00 83 1026.1
20210518132454 67 259 0.0 0.9 0.00 0.00 0.00 85 1026.1
20210518131954 66 259 0.0 0.9 0.00 0.00 0.00 85 1026.0
20210518131453 66 276 0.9 0.9 0.00 0.00 0.00 87 1026.0
20210518130953 65 282 0.0 0.9 0.00 0.00 0.00 87 1025.9
20210518130453 65 281 0.0 0.0 0.00 0.00 0.00 88 1025.9
20210518125953 64 281 0.0 0.0 0.00 0.00 0.00 88 1026.0
20210518125453 64 223 0.0 0.0 0.00 0.00 0.00 89 1026.0
20210518124953 64 223 0.0 0.0 0.00 0.00 0.00 90 1025.9
20210518124453 63 223 0.0 0.0 0.00 0.00 0.00 90 1025.8
20210518123952 63 223 0.0 0.0 0.00 0.00 0.00 90 1025.8
20210518123452 63 223 0.0 0.0 0.00 0.00 0.00 91 1025.8
20210518122952 62 223 0.0 0.0 0.00 0.00 0.00 91 1025.8
20210518122452 62 223 0.0 0.0 0.00 0.00 0.00 91 1025.8
20210518121952 62 223 0.0 0.0 0.00 0.00 0.00 92 1025.7
20210518121452 62 223 0.0 0.0 0.00 0.00 0.00 92 1025.6
20210518120952 61 223 0.0 0.0 0.00 0.00 0.00 92 1025.6
20210518120451 61 223 0.0 0.0 0.00 0.00 0.00 93 1025.6
20210518115951 61 223 0.0 0.0 0.00 0.00 0.00 93 1025.4
20210518115451 60 223 0.0 0.0 0.00 0.00 0.00 93 1025.3
20210518114951 60 223 0.0 0.0 0.00 0.00 0.00 93 1025.2
20210518114451 60 223 0.0 0.0 0.00 0.00 0.00 93 1025.2
20210518113951 60 223 0.0 0.0 0.00 0.00 0.00 93 1025.1
20210518113451 59 223 0.0 0.0 0.00 0.00 0.00 93 1025.1
20210518112950 59 223 0.0 0.0 0.00 0.00 0.00 93 1025.0
20210518112450 59 49 0.0 0.0 0.00 0.00 0.00 93 1024.9
20210518111950 59 170 0.0 0.0 0.00 0.00 0.00 93 1024.8
20210518111450 59 44 0.0 0.0 0.00 0.00 0.00 93 1024.7
20210518110950 59 44 0.0 0.0 0.00 0.00 0.00 93 1024.5
20210518110450 59 44 0.0 0.0 0.00 0.00 0.00 93 1024.5
20210518105950 58 44 0.0 0.0 0.00 0.00 0.00 93 1024.2
20210518105449 58 44 0.0 0.0 0.00 0.00 0.00 93 1024.2
20210518104949 58 44 0.0 0.0 0.00 0.00 0.00 93 1024.0
20210518104450 58 44 0.0 0.0 0.00 0.00 0.00 92 1024.0
20210518103949 58 44 0.0 0.0 0.00 0.00 0.00 92 1023.9
20210518103449 58 44 0.0 0.0 0.00 0.00 0.00 92 1023.8
20210518102949 58 44 0.0 0.0 0.00 0.00 0.00 92 1023.8
20210518102449 58 44 0.0 0.0 0.00 0.00 0.00 92 1023.8
20210518101948 58 44 0.0 0.0 0.00 0.00 0.00 92 1023.7
20210518101448 58 44 0.0 0.0 0.00 0.00 0.00 92 1023.8
20210518100948 58 44 0.0 0.0 0.00 0.00 0.00 92 1023.7
20210518100448 58 44 0.0 0.0 0.00 0.00 0.00 92 1023.6
20210518095948 58 44 0.0 0.0 0.00 0.00 0.00 92 1023.6
20210518095448 58 44 0.0 0.0 0.00 0.00 0.00 92 1023.6
20210518094948 58 44 0.0 0.0 0.00 0.00 0.00 92 1023.4
20210518094447 58 44 0.0 0.0 0.00 0.00 0.00 92 1023.3
20210518093947 58 44 0.0 0.0 0.00 0.00 0.00 92 1023.3
20210518093447 58 44 0.0 0.0 0.00 0.00 0.00 92 1023.3
20210518092947 58 44 0.0 0.0 0.00 0.00 0.00 91 1023.3
20210518092447 58 44 0.0 0.0 0.00 0.00 0.00 91 1023.2
20210518091947 58 44 0.0 0.0 0.00 0.00 0.00 91 1023.1
20210518091447 58 44 0.0 0.0 0.00 0.00 0.00 91 1023.0
20210518090946 58 44 0.0 0.0 0.00 0.00 0.00 91 1022.9
20210518090446 58 44 0.0 0.0 0.00 0.00 0.00 91 1022.9
20210518085946 58 44 0.0 0.0 0.00 0.00 0.00 91 1022.9
20210518085446 58 44 0.0 0.0 0.00 0.00 0.00 91 1022.8
20210518084946 58 44 0.0 0.0 0.00 0.00 0.00 91 1022.9
20210518084446 58 44 0.0 0.0 0.00 0.00 0.00 90 1023.0
20210518083945 58 44 0.0 0.0 0.00 0.00 0.00 90 1022.9
20210518083445 59 44 0.0 0.0 0.00 0.00 0.00 91 1023.0
20210518082945 59 44 0.0 0.0 0.00 0.00 0.00 91 1022.7
20210518082445 59 44 0.0 0.0 0.00 0.00 0.00 91 1022.5
20210518081945 59 44 0.0 0.0 0.00 0.00 0.00 90 1022.4
20210518081445 59 44 0.0 0.0 0.00 0.00 0.00 90 1022.4
20210518080945 59 44 0.0 0.0 0.00 0.00 0.00 90 1022.4
20210518080444 59 44 0.0 0.0 0.00 0.00 0.00 90 1022.3
20210518075944 59 44 0.0 0.0 0.00 0.00 0.00 90 1022.3
20210518075444 59 44 0.0 0.0 0.00 0.00 0.00 90 1022.4
20210518074944 59 44 0.0 0.0 0.00 0.00 0.00 90 1022.4
20210518074444 59 44 0.0 0.0 0.00 0.00 0.00 90 1022.4
20210518073944 59 44 0.0 0.0 0.00 0.00 0.00 90 1022.5
20210518073444 59 44 0.0 0.0 0.00 0.00 0.00 90 1022.5
20210518072943 59 44 0.0 0.0 0.00 0.00 0.00 90 1022.5
20210518072443 59 44 0.0 0.0 0.00 0.00 0.00 90 1022.5
20210518071943 59 44 0.0 0.0 0.00 0.00 0.00 89 1022.6
20210518071443 59 44 0.0 0.0 0.00 0.00 0.00 89 1022.7
20210518070943 59 44 0.0 0.0 0.00 0.00 0.00 89 1022.6
20210518070443 59 44 0.0 0.0 0.00 0.00 0.00 89 1022.4
20210518065943 59 44 0.0 0.0 0.00 0.00 0.00 88 1022.4
20210518065442 59 44 0.0 0.0 0.00 0.00 0.00 88 1022.5
20210518064946 59 44 0.0 0.0 0.00 0.00 0.00 88 1022.4
20210518064442 59 44 0.0 0.0 0.00 0.00 0.00 88 1022.4
20210518063942 60 44 0.0 0.0 0.00 0.00 0.00 87 1022.3
20210518063442 60 44 0.0 0.0 0.00 0.00 0.00 87 1022.4
20210518062942 60 44 0.0 0.0 0.00 0.00 0.00 87 1022.4
20210518062442 60 44 0.0 0.0 0.00 0.00 0.00 87 1022.5
20210518061941 60 44 0.0 0.0 0.00 0.00 0.00 86 1022.5
20210518061441 60 44 0.0 0.0 0.00 0.00 0.00 86 1022.7
20210518060941 61 44 0.0 0.0 0.00 0.00 0.00 85 1022.6
20210518060441 61 44 0.0 0.0 0.00 0.00 0.00 85 1022.6
20210518055941 61 44 0.0 0.0 0.00 0.00 0.00 85 1022.5
20210518055441 61 44 0.0 0.0 0.00 0.00 0.00 85 1022.5
20210518054941 61 44 0.0 0.0 0.00 0.00 0.00 85 1022.5
20210518054440 61 44 0.0 0.0 0.00 0.00 0.00 85 1022.5
20210518053940 61 44 0.0 0.0 0.00 0.00 0.00 85 1022.3
20210518053440 61 44 0.0 0.0 0.00 0.00 0.00 85 1022.5
20210518052940 61 44 0.0 0.0 0.00 0.00 0.00 85 1022.5
20210518052440 61 44 0.0 0.0 0.00 0.00 0.00 86 1022.5
20210518051940 61 44 0.0 0.0 0.00 0.00 0.00 86 1022.6
20210518051439 61 44 0.0 0.0 0.00 0.00 0.00 86 1022.6
20210518050939 61 44 0.0 0.0 0.00 0.00 0.00 87 1022.8
20210518050439 62 44 0.0 0.0 0.00 0.00 0.00 86 1022.8
20210518045939 62 44 0.0 0.0 0.00 0.00 0.00 86 1022.9
20210518045439 62 44 0.0 0.0 0.00 0.00 0.00 86 1022.9
20210518044939 62 44 0.0 0.0 0.00 0.00 0.00 86 1022.9
20210518044439 62 44 0.0 0.0 0.00 0.00 0.00 87 1023.0
20210518043938 62 44 0.0 0.0 0.00 0.00 0.00 86 1022.9
20210518043438 62 44 0.0 0.0 0.00 0.00 0.00 86 1023.0
20210518042938 62 44 0.0 0.0 0.00 0.00 0.00 87 1023.0
20210518042438 62 44 0.0 0.0 0.00 0.00 0.00 87 1022.9
20210518041938 62 44 0.0 0.0 0.00 0.00 0.00 87 1022.8
20210518041438 62 44 0.0 0.0 0.00 0.00 0.00 87 1022.8
20210518040938 62 44 0.0 0.0 0.00 0.00 0.00 87 1022.7
20210518040437 62 44 0.0 0.0 0.00 0.00 0.00 87 1022.7
20210518035937 62 44 0.0 0.0 0.00 0.00 0.00 87 1022.6
20210518035437 62 44 0.0 0.0 0.00 0.00 0.00 88 1022.7
20210518034937 62 44 0.0 0.0 0.00 0.00 0.00 88 1022.7
20210518034437 62 44 0.0 0.0 0.00 0.00 0.00 88 1022.7
20210518033937 62 44 0.0 0.0 0.00 0.00 0.00 88 1022.8
20210518033437 62 44 0.0 0.0 0.00 0.00 0.00 88 1022.8
20210518032936 62 44 0.0 0.0 0.00 0.00 0.00 88 1022.7
20210518032436 62 44 0.0 0.0 0.00 0.00 0.00 88 1022.7
20210518031936 62 44 0.0 0.0 0.00 0.00 0.00 88 1022.7
20210518031436 62 44 0.0 0.0 0.00 0.00 0.00 88 1022.6
20210518030936 62 44 0.0 0.0 0.00 0.00 0.00 87 1022.8
20210518030436 62 44 0.0 0.0 0.00 0.00 0.00 87 1022.6
20210518025936 63 44 0.0 0.0 0.00 0.00 0.00 87 1022.6
20210518025435 63 44 0.0 0.0 0.00 0.00 0.00 86 1022.6
20210518024935 63 44 0.0 0.0 0.00 0.00 0.00 86 1022.6
20210518024435 63 44 0.0 0.0 0.00 0.00 0.00 86 1022.6
20210518023935 63 44 0.0 0.0 0.00 0.00 0.00 86 1022.6
20210518023435 63 44 0.0 0.0 0.00 0.00 0.00 86 1022.5
20210518022935 64 44 0.0 0.0 0.00 0.00 0.00 85 1022.4
20210518022435 64 44 0.0 0.0 0.00 0.00 0.00 85 1022.4
20210518021934 64 44 0.0 0.0 0.00 0.00 0.00 85 1022.4
20210518021434 64 44 0.0 0.0 0.00 0.00 0.00 85 1022.3
20210518020934 64 44 0.0 0.0 0.00 0.00 0.00 84 1022.3
20210518020434 65 44 0.0 0.0 0.00 0.00 0.00 84 1022.2
20210518015934 65 44 0.0 0.0 0.00 0.00 0.00 84 1022.2
20210518015434 65 44 0.0 0.0 0.00 0.00 0.00 84 1022.2
20210518014934 65 44 0.0 0.0 0.00 0.00 0.00 84 1022.1
20210518014433 66 44 0.0 0.0 0.00 0.00 0.00 83 1022.1
20210518013933 66 44 0.0 0.0 0.00 0.00 0.00 84 1022.1
20210518013433 66 44 0.0 0.0 0.00 0.00 0.00 83 1022.1
20210518012933 66 44 0.0 0.0 0.00 0.00 0.00 83 1022.1
20210518012433 67 44 0.0 0.0 0.00 0.00 0.00 82 1022.0
20210518011933 67 44 0.0 0.0 0.00 0.00 0.00 82 1022.0
20210518011433 67 44 0.0 0.0 0.00 0.00 0.00 81 1022.0
20210518010932 67 44 0.0 0.0 0.00 0.00 0.00 81 1022.0
20210518010432 68 44 0.0 0.0 0.00 0.00 0.00 81 1022.0
20210518005932 68 44 0.0 0.0 0.00 0.00 0.00 80 1022.1
20210518005432 69 44 0.0 0.0 0.00 0.00 0.00 80 1022.0
20210518004932 69 44 0.0 0.0 0.00 0.00 0.00 79 1022.0
20210518004432 69 44 0.0 0.0 0.00 0.00 0.00 78 1022.0
20210518003931 69 44 0.0 0.0 0.00 0.00 0.00 78 1022.0
20210518003431 70 44 0.0 0.0 0.00 0.00 0.00 77 1022.0
20210518002931 70 44 0.0 0.0 0.00 0.00 0.00 77 1022.0
20210518002431 70 44 0.0 0.0 0.00 0.00 0.00 76 1021.9
20210518001931 70 44 0.0 0.0 0.00 0.00 0.00 75 1021.9
20210518001431 71 44 0.0 0.0 0.00 0.00 0.00 74 1021.9
20210518000931 71 44 0.0 0.0 0.00 0.00 0.00 75 1021.9
20210518000430 71 44 0.0 0.0 0.00 0.00 0.00 75 1021.9
20210517235930 71 44 0.0 0.0 0.00 0.00 0.00 73 1021.8
20210517235430 72 44 0.0 0.0 0.00 0.00 0.00 72 1021.7
20210517234930 72 44 0.0 0.0 0.00 0.00 0.00 72 1021.6
20210517234430 72 44 0.0 0.0 0.00 0.00 0.00 72 1021.7
20210517233930 73 44 0.0 0.0 0.00 0.00 0.00 72 1021.6
20210517233430 73 44 0.0 0.0 0.00 0.00 0.00 71 1021.7
20210517232929 74 44 0.0 0.0 0.00 0.00 0.00 71 1021.7
20210517232429 74 44 0.0 0.0 0.00 0.00 0.00 71 1021.6
20210517231929 74 44 0.0 0.0 0.00 0.00 0.00 71 1021.5
20210517231429 74 44 0.0 0.0 0.00 0.00 0.00 70 1021.5
20210517230929 75 44 0.0 0.0 0.00 0.00 0.00 69 1021.5
20210517230429 75 44 0.0 0.0 0.00 0.00 0.00 69 1021.4
20210517225929 75 44 0.0 0.0 0.00 0.00 0.00 70 1021.4
20210517225428 75 44 0.0 0.0 0.00 0.00 0.00 68 1021.4
20210517224928 76 44 0.0 0.0 0.00 0.00 0.00 67 1021.4
20210517224428 76 44 0.0 0.0 0.00 0.00 0.00 66 1021.5
20210517223928 76 44 0.0 0.0 0.00 0.00 0.00 63 1021.4
20210517223428 76 44 0.0 0.0 0.00 0.00 0.00 64 1021.6
20210517222928 76 44 0.0 0.0 0.00 0.00 0.00 63 1021.5
20210517222428 77 44 0.0 0.0 0.00 0.00 0.00 61 1021.6
20210517221927 77 44 0.0 0.0 0.00 0.00 0.00 63 1021.6
20210517221427 77 44 0.0 0.0 0.00 0.00 0.00 61 1021.5
20210517220927 77 44 0.0 0.0 0.00 0.00 0.00 61 1021.4
20210517220427 77 44 0.0 6.1 0.00 0.00 0.00 61 1021.5
20210517215927 77 44 0.0 6.1 0.00 0.00 0.00 62 1021.4
20210517214426 77 44 0.0 6.1 0.00 0.00 0.00 56 1021.4
20210517213950 78 88 0.0 6.1 0.00 0.00 0.00 56 1021.4
20210517213426 78 88 0.0 6.1 0.00 0.00 0.00 55 1021.5
20210517210425 79 252 0.0 2.6 0.00 0.00 0.00 50 1021.5
20210517205925 79 260 0.0 2.6 0.00 0.00 0.00 50 1021.4
20210517205425 79 242 0.0 2.6 0.00 0.00 0.00 51 1021.4
20210517204925 79 263 0.0 2.6 0.00 0.00 0.00 50 1021.4
20210517201424 78 250 0.0 2.6 0.00 0.00 0.00 53 1021.5
20210517200924 79 250 0.0 2.6 0.00 0.00 0.00 53 1021.5
20210517195423 79 246 0.0 1.7 0.00 0.00 0.00 50 1021.9
20210517194923 78 247 0.0 1.7 0.00 0.00 0.00 53 1021.8
20210517194423 78 247 0.0 1.7 0.00 0.00 0.00 55 1021.9